OpenBCM V2.0.2 (Linux)

Packet Radio Mailbox

IZ3LSV

[San Dona' di P. JN]

 Login: GUEST





  
CX2SA  > KEP      11.02.09 03:01l 73 Lines 2981 Bytes #999 (0) @ WW
BID : ARLK012
Read: GUEST
Subj: ARLK012 Keplerian data
Path: IZ3LSV<IR1UAW<IK2QCA<I4UKI<IK6ZDE<VE2GPQ<CX2SA
Sent: 090210/2304Z @:CX2SA.LAV.URY.SA #:8226 [Minas] FBB7.00e $:ARLK012
From: CX2SA@CX2SA.LAV.URY.SA
To  : KEP@ARL


ZCZC SK12
QST de W1AW  
Keplerian Bulletin 12  ARLK012
From ARRL Headquarters
Newington, CT  February 10, 2009
To all radio amateurs 

SB KEP ARL ARLK012
ARLK012 Keplerian data

Special thanks to Space-Track for the following Keplerian data.

Decode 2-line elsets with the following key:
1 AAAAAU 00  0  0 BBBBB.BBBBBBBB  .CCCCCCCC  00000-0  00000-0 0  DDDZ
2 AAAAA EEE.EEEE FFF.FFFF GGGGGGG HHH.HHHH III.IIII JJ.JJJJJJJJKKKKKZ
KEY: A-CATALOGNUM B-EPOCHTIME C-DECAY D-ELSETNUM E-INCLINATION F-RAAN
G-ECCENTRICITY H-ARGPERIGEE I-MNANOM J-MNMOTION K-ORBITNUM Z-CHECKSUM

AO-07
1 07530U 74089B   09040.63795660 -.00000027 +00000-0 +10000-3 0 04009
2 07530 101.4416 069.9379 0011939 157.8908 202.2680 12.53575152566731
UO-11
1 14781U 84021B   09040.54422443 +.00000015 +00000-0 +92867-5 0 08843
2 14781 098.1253 083.7377 0009739 033.9916 326.1934 14.79693135338959
AO-16
1 20439U 90005D   09040.53062999  .00000031  00000-0  27070-4 0  5314
2 20439 098.2621 014.8493 0010683 185.8440 174.2611 14.31815861994883
AO-27
1 22825U 93061C   09040.59423406 -.00000053  00000-0 -41808-5 0  1734
2 22825 098.4200 358.1447 0007503 282.3334 077.6988 14.29257995801687
IO-26
1 22826U 93061D   09040.88682322 -.00000001 +00000-0 +16079-4 0 08933
2 22826 098.4135 359.2323 0008088 276.9354 083.0904 14.29509039801824
FO-29
1 24278U 96046B   09040.87839874 -.00000084  00000-0 -46734-4 0  9672
2 24278 098.5726 291.8978 0350358 320.3063 037.2903 13.52941973616536
GO-32
1 25397U 98043D   09040.67729162 +.00000173 +00000-0 +94746-4 0 08199
2 25397 098.3397 069.7743 0000323 262.6251 097.4890 14.23155671549993
ISS
1 25544U 98067A   09041.77197917  .00004783  00000-0  42288-4 0  2467
2 25544 051.6405 234.2647 0008694 013.1959 159.0783 15.70849332586066
NO-44
1 26931U 01043C   09040.95212567 +.00000033 +00000-0 +45188-4 0 00974
2 26931 067.0526 032.1328 0005626 260.4281 099.6197 14.29547581384394
SO-50
1 27607U 02058C   09040.48201032 +.00000050 +00000-0 +29738-4 0 08122
2 27607 064.5572 052.9497 0079569 233.1928 126.1866 14.71414197329882
CO-55
1 27844U 03031E   09040.58264203 +.00000031 +00000-0 +34790-4 0 05093
2 27844 098.7168 051.5387 0010335 147.7809 212.3991 14.20621359291140
AO-51
1 28375U 04025K   09040.58531981 -.00000001 +00000-0 +12271-4 0 03150
2 28375 098.0564 057.6012 0083783 151.8157 208.7608 14.40632441242588
VO-52
1 28650U 05017B   09040.33661738 +.00000079 +00000-0 +16541-4 0 01522
2 28650 097.7600 106.0497 0028312 087.0700 273.3750 14.81550687203712
CO-58
1 28895U 05043F   09040.77534744 +.00000088 +00000-0 +28022-4 0 02298
2 28895 098.0769 294.8472 0018823 029.5454 330.6802 14.59740287175147
DO-64
1 32789U 08021G   09040.72467087 +.00000132 +00000-0 +23522-4 0 02935
2 32789 097.9642 105.6668 0016789 086.8080 273.5053 14.81608821042573

Keplerian bulletins are transmitted twice weekly from W1AW.  The
next scheduled transmission of these data will be Friday, February
13, 2009, at 2330z on Baudot and AMTOR.
NNNN


Read previous mail | Read next mail


 04.05.2026 12:25:48lGo back Go up